Weather History for Chapel Hill, NC

Change the Weather History Date:

Tuesday, February 26, 2013

  Actual Average Record
Temperature  
Mean Temperature 45 °F -  
Max Temperature 55 °F 54 °F 77 °F (1951)
Min Temperature 35 °F 30 °F 9 °F (1967)
Degree Days  
Heating Degree Days 20    
Moisture  
Dew Point 42 °F    
Average Humidity 88    
Maximum Humidity 97    
Minimum Humidity 59    
Precipitation  
Precipitation 0.85 in - - ()
Sea Level Pressure  
Sea Level Pressure 29.78 in    
Wind  
Wind Speed 8 mph (ENE)    
Max Wind Speed 15 mph    
Max Gust Speed 23 mph    
Visibility 5 miles    
Events Fog , Rain    
Averages and records for this station are not official NWS values.
T = Trace of Precipitation, MM = Missing Value Source: NWS Daily Summary

Daily Weather History Graph

Daily Weather History Graph

Search for Another Location

Airport:

Trip Planner

Search our weather history database for the weather conditions in past years. The results will help you decide how hot, cold, wet, or windy it might be!

Date:

Astronomy

Feb. 26, 2013 Rise Set
Actual Time 6:49 AM EST 6:08 PM EST
Civil Twilight 6:24 AM EST 6:34 PM EST
Nautical Twilight 5:54 AM EST 7:04 PM EST
Astronomical Twilight 5:24 AM EST 7:33 PM EST
Moon 7:19 PM EST (2/26) 6:54 AM EST (2/26)
Length of Visible Light 12h 10m
Length of Day
11h 18m
Full, 99% of the Moon is Illuminated
Feb 26
Full
Mar 4
Last Quarter
Mar 11
New
Mar 19
First Quarter
Mar 27
Full

Hourly Weather History & Observations

Time (EST) Temp. Windchill Dew Point Humidity Pressure Visibility Wind Dir Wind Speed Gust Speed Precip Events Conditions
12:56 AM 36.0 °F 30.3 °F 23.0 °F 59% 30.15 in 10.0 mi NE 6.9 mph - N/A   Overcast
1:56 AM 36.0 °F 28.0 °F 23.0 °F 59% 30.13 in 10.0 mi NE 11.5 mph - N/A   Overcast
2:56 AM 36.0 °F 29.0 °F 23.0 °F 59% 30.10 in 10.0 mi NE 9.2 mph - N/A   Overcast
3:56 AM 36.0 °F 28.5 °F 24.1 °F 62% 30.06 in 10.0 mi NE 10.4 mph - N/A   Overcast
4:12 AM 36.0 °F 28.5 °F 24.1 °F 62% 30.04 in 10.0 mi NE 10.4 mph - 0.00 in   Overcast
4:48 AM 36.0 °F 28.5 °F 24.1 °F 62% 30.06 in 10.0 mi NE 10.4 mph - 0.00 in   Overcast
4:56 AM 36.0 °F 28.5 °F 24.1 °F 62% 30.06 in 10.0 mi NE 10.4 mph - 0.00 in   Overcast
5:56 AM 36.0 °F 28.5 °F 25.0 °F 64% 30.04 in 10.0 mi NNE 10.4 mph - N/A   Overcast
6:56 AM 35.1 °F 27.4 °F 28.9 °F 78% 30.02 in 3.0 mi NE 10.4 mph - 0.01 in Rain Rain
7:08 AM 35.1 °F 27.9 °F 30.0 °F 82% 30.02 in 4.0 mi NE 9.2 mph - 0.02 in Rain Light Rain
7:56 AM 35.1 °F 26.4 °F 32.0 °F 89% 30.01 in 3.0 mi NE 12.7 mph - 0.12 in Rain Light Rain
8:39 AM 36.0 °F 28.0 °F 33.1 °F 89% 29.99 in 2.5 mi ENE 11.5 mph - 0.05 in Rain Light Rain
8:46 AM 36.0 °F 28.5 °F 33.1 °F 89% 29.98 in 3.0 mi ENE 10.4 mph - 0.06 in Rain Light Rain
8:56 AM 36.0 °F 29.6 °F 33.1 °F 89% 29.99 in 3.0 mi ENE 8.1 mph - 0.07 in Rain Light Rain
9:52 AM 37.4 °F 29.8 °F 35.6 °F 93% 29.94 in 3.0 mi ENE 11.5 mph 23.0 mph 0.09 in Rain Light Rain
9:56 AM 37.0 °F 29.3 °F 35.1 °F 93% 29.94 in 3.0 mi NE 11.5 mph - 0.09 in Rain Light Rain
10:12 AM 37.0 °F 28.9 °F 35.1 °F 93% 29.93 in 2.5 mi ENE 12.7 mph - 0.01 in Rain Rain
10:18 AM 37.9 °F 30.9 °F 36.0 °F 93% 29.92 in 1.8 mi ENE 10.4 mph - 0.05 in Rain Heavy Rain
10:40 AM 39.0 °F 31.4 °F 37.0 °F 93% 29.90 in 2.0 mi ENE 12.7 mph 20.7 mph 0.10 in Rain Rain
10:44 AM 39.0 °F 30.6 °F 37.0 °F 93% 29.88 in 1.8 mi NE 15.0 mph 21.9 mph 0.11 in Rain Rain
10:54 AM 39.2 °F 30.8 °F 37.4 °F 93% 29.88 in 2.5 mi ENE 15.0 mph 19.6 mph 0.13 in Rain Light Rain
10:56 AM 39.0 °F 31.4 °F 37.0 °F 93% 29.88 in 2.5 mi ENE 12.7 mph 19.6 mph 0.13 in Rain Light Rain
11:05 AM 39.0 °F 31.4 °F 37.0 °F 93% 29.87 in 2.5 mi ENE 12.7 mph 18.4 mph 0.01 in Rain Light Rain
11:20 AM 39.9 °F 35.1 °F 37.9 °F 93% 29.86 in 1.8 mi ENE 6.9 mph 18.4 mph 0.06 in Rain Rain
11:31 AM 41.0 °F 34.3 °F 39.0 °F 93% 29.85 in 2.0 mi ENE 11.5 mph - 0.08 in Rain Rain
11:56 AM 43.0 °F 37.2 °F 41.0 °F 93% 29.83 in 2.5 mi ENE 10.4 mph - 0.15 in Rain Rain
12:48 PM 45.0 °F 39.7 °F 43.0 °F 93% 29.76 in 4.0 mi ENE 10.4 mph - 0.12 in Rain Light Rain
12:56 PM 46.0 °F 41.4 °F 44.1 °F 93% 29.75 in 5.0 mi East 9.2 mph 19.6 mph 0.12 in Rain Light Rain
1:26 PM 48.0 °F - 46.0 °F 93% 29.72 in 6.0 mi East 11.5 mph - 0.03 in Rain Light Rain
1:56 PM 50.0 °F - 46.9 °F 89% 29.69 in 3.0 mi East 8.1 mph 20.7 mph 0.05 in Rain Light Rain
2:46 PM 52.0 °F - 48.9 °F 89% 29.64 in 2.5 mi East 11.5 mph 19.6 mph 0.04 in Rain Rain
2:56 PM 52.0 °F - 50.0 °F 93% 29.63 in 5.0 mi East 12.7 mph 19.6 mph 0.04 in Rain Light Rain
3:54 PM 53.6 °F - 51.8 °F 94% 29.59 in 2.0 mi East 8.1 mph - 0.02 in Rain Light Rain
3:56 PM 53.1 °F - 51.1 °F 93% 29.59 in 1.8 mi East 6.9 mph - 0.03 in Rain Light Rain
4:19 PM 54.0 °F - 52.0 °F 93% 29.58 in 3.0 mi Variable 4.6 mph - 0.04 in Rain Light Rain
4:56 PM 55.0 °F - 53.1 °F 93% 29.57 in 8.0 mi East 12.7 mph - 0.04 in   Overcast
5:38 PM 55.9 °F - 54.0 °F 93% 29.57 in 10.0 mi East 3.5 mph - N/A   Overcast
5:56 PM 55.9 °F - 54.0 °F 93% 29.57 in 9.0 mi Calm Calm - N/A   Overcast
6:27 PM 55.9 °F - 54.0 °F 93% 29.58 in 1.8 mi Calm Calm - N/A   Overcast
6:33 PM 55.9 °F - 54.0 °F 93% 29.58 in 2.0 mi Calm Calm - N/A   Overcast
6:43 PM 55.9 °F - 55.0 °F 97% 29.58 in 7.0 mi Calm Calm - N/A   Overcast
6:46 PM 55.9 °F - 54.0 °F 93% 29.58 in 2.5 mi Calm Calm - N/A   Overcast
6:51 PM 55.4 °F - 53.6 °F 94% 29.58 in 1.0 mi Calm Calm - N/A   Overcast
6:54 PM 55.4 °F - 53.6 °F 94% 29.58 in 0.8 mi Calm Calm - N/A   Overcast
6:56 PM 55.0 °F - 53.1 °F 93% 29.59 in 0.5 mi North - - N/A Fog Fog
7:01 PM 55.9 °F - 55.0 °F 97% 29.59 in 1.0 mi WNW 4.6 mph - N/A   Overcast
7:05 PM 55.9 °F - 54.0 °F 93% 29.59 in 4.0 mi WNW 3.5 mph - N/A   Overcast
7:25 PM 55.0 °F - 54.0 °F 96% 29.59 in 1.8 mi Calm Calm - N/A   Overcast
7:33 PM 55.9 °F - 54.0 °F 93% 29.59 in 2.5 mi Calm Calm - N/A   Overcast
7:41 PM 55.0 °F - 54.0 °F 96% 29.59 in 1.0 mi Calm Calm - N/A   Overcast
7:50 PM 55.4 °F - 53.6 °F 94% 29.60 in 3.0 mi Calm Calm - N/A   Overcast
7:56 PM 55.9 °F - 54.0 °F 93% 29.60 in 4.0 mi Variable 3.5 mph - N/A   Overcast
8:45 PM 53.1 °F - 51.1 °F 93% 29.62 in 10.0 mi WSW 8.1 mph - N/A   Mostly Cloudy
8:56 PM 52.0 °F - 48.9 °F 89% 29.63 in 10.0 mi West 8.1 mph 19.6 mph N/A   Mostly Cloudy
9:56 PM 48.0 °F - 45.0 °F 89% 29.65 in 10.0 mi Calm Calm - N/A   Overcast
10:07 PM 46.9 °F - 45.0 °F 93% 29.65 in 10.0 mi Variable 3.5 mph - N/A   Overcast
10:56 PM 46.0 °F - 44.1 °F 93% 29.64 in 8.0 mi Calm Calm - N/A   Overcast
11:56 PM 45.0 °F 42.6 °F 43.0 °F 93% 29.63 in 7.0 mi Variable 4.6 mph - N/A   Overcast